Weather in Al-Hofuf

Saudi Arabia     25°22′05″N   49°35′15″E
temp.,
°C
wind,
m/s
gust,
m/s
humid.,
%
clouds,
%
prec.,
mm/h
press.,
hPa
HPBL,
m
8 march, mon
mon800:00+12ne12500 0.0 101623
03:00+12wnw11430 0.0 101523
06:00+12wnw01350 0.0 101623
09:00+21e22170 0.0 1016291
12:00+27e11120 0.0 1014911
15:00+30sse23100 0.0 10121492
18:00+24ese45140 0.0 101224
21:00+20sse45190 0.0 101336
9 march, tue
tue900:00+20s67190 0.0 101291
03:00+19ssw69220 0.0 1011103
06:00+20ssw711220 0.0 1012141
09:00+28wsw69140 0.0 1014673
12:00+34wsw57110 0.0 10131531
15:00+35w45100 0.0 10102885
18:00+28n68170 0.0 101288
21:00+21nne57360 0.0 1014102
10 march, wed
wed1000:00+18n55490 0.0 101579
03:00+17n45440 0.0 101451
06:00+17n45370 0.0 101634
09:00+24n79200 0.0 1017577
12:00+30nne771210 0.0 1016971
15:00+31nne661129 0.0 10131324
18:00+24ene572060 0.0 101584
21:00+19nne452939 0.0 101638
11 march, thu
thu1100:00+18nne453236 0.0 101532
03:00+17ne453318 0.0 101326
06:00+16nne34410 0.0 101423
09:00+24ene352712 0.0 1016403
12:00+31se44140 0.0 1013989
15:00+33s661210 0.0 10101854
18:00+28ssw451648 0.0 100927
21:00+25ssw561774 0.0 100956
12 march, fri
fri1200:00+24s45190 0.0 100826
03:00+22ssw56210 0.0 100656
06:00+22sw67220 0.0 100683
09:00+33sw1217110 0.0 10071057
12:00+33nw1212110 0.0 10061143
15:00+32nnw1214110 0.0 10061509
18:00+26n813180 0.0 1010262
21:00+22nnw712240 0.0 1013220